Regional Weather Roundup
Issued by NWS

Home | Current Version | Previous Version | Text Only | Print | Product List | Glossary On
Versions: 1 2 3 4 5 6 7 8 9 10 11 12 13 14 15 16 17 18 19 20 21 22 23 24 25 26 27 28
000
ASUS44 KLIX 260313
RWRLA
LOUISIANA WEATHER ROUNDUP
NATIONAL WEATHER SERVICE NEW ORLEANS LA
1000 PM CDT TUE APR 25 2017

NOTE: "FAIR" INDICATES FEW OR NO CLOUDS BELOW 12,000 FEET WITH NO
      SIGNIFICANT WEATHER AND/OR OBSTRUCTIONS TO VISIBILITY.
      SKY/WX - SKY CONDITION AND SIGNIFICANT WEATHER.
      TMP - AIR TEMPERATURE.    DP   - DEWPOINT TEMPERATURE.
      RH  - RELATIVE HUMIDITY.  PRES - PRESSURE.
      HX  - HEAT INDEX.         WCI  - WIND CHILL INDEX.

*  THESE STATIONS ARE NOT NWS OR FAA STATIONS AND ARE NOT UNDER
   NWS QUALITY CONTROL.

LAZ040-048-061>063-065-066-069-260400-
SOUTHEAST LOUISIANA

CITY           SKY/WX    TMP DP  RH WIND       PRES   REMARKS
N.O. INTL ARPT PTCLDY    68  61  78 S7        29.76R
N.O. LAKEFRONT PTCLDY    69  60  73 S9        29.77R
N.O. DOWNTOWN*   N/A     72  60  66 S6          N/A
RESERVE*       NOT AVBL
SLIDELL        CLEAR     69  60  73 S8        29.76R
BATON ROUGE    CLEAR     71  62  73 S9        29.75R
BOOTHVILLE     CLEAR     70  61  73 S9        29.80R
BELLE CHASSE   PTCLDY    68  61  78 S8        29.77R
BOGALUSA*      NOT AVBL
GALLIANO*      CLEAR     67  58  73 S6        29.77S
NEW ROADS*     FAIR      69  63  81 S8        29.74R
GONZALES*      FAIR      69  62  76 SE5       29.75R
HAMMOND*       CLEAR     64  59  82 S6        29.75R
HOUMA*         CLEAR     68  62  79 S7        29.76R
PORT FOURCHON* CLEAR     72  59  64 S8G15     29.77S

$$

LAZ041-044-053-054-260400-
SOUTHWEST LOUISIANA

CITY           SKY/WX    TMP DP  RH WIND       PRES   REMARKS
LAKE CHARLES   CLOUDY    74  69  85 S13       29.67R
LAFAYETTE      CLOUDY    75  67  76 SE7       29.71S
PATTERSON      PTCLDY    67  64  90 SE5       29.76R
SALT POINT       N/A     71  65  81 VRB3      29.73R
NEW IBERIA     CLOUDY    72  65  78 S9        29.73S
CHENAULT AIRPK CLOUDY    64  61  88 S17       29.67S

$$

LAZ027-028-260400-
CENTRAL LOUISIANA

CITY           SKY/WX    TMP DP  RH WIND       PRES   REMARKS
FORT POLK      CLOUDY    72  67  82 SE15      29.65R
ALEXANDRIA INT CLOUDY    72  65  78 S15G24    29.65R
ALEXANDRIA     CLOUDY    73  64  73 S15       29.68R

$$

LAZ001-002-260400-
NORTHWEST LOUISIANA

CITY           SKY/WX    TMP DP  RH WIND       PRES   REMARKS
SHREVEPORT     CLOUDY    75  67  76 S14       29.58R
BARKSDALE AFB  CLOUDY    75  66  73 S16G24    29.59R
DTN SHREVEPORT CLOUDY    76  66  71 S15G21    29.59R

$$

LAZ014-016-260400-
NORTHEAST LOUISIANA

CITY           SKY/WX    TMP DP  RH WIND       PRES   REMARKS
MONROE         CLOUDY    74  60  61 S13       29.64S
TALLULAH       CLEAR     72  58  61 S9        29.68R

$$





USA.gov is the U.S. government's official web portal to all federal, state and local government web resources and services.